Precipitable_Water
0.74 0.81 0.89 0.97 1.01 1.04 1.03 0.98 1.02 1.06 1.06 1.06 1.07 0.99 0.95 0.90 0.82 0.79 0.77 0.72 0.69 0.63
0.67 0.75 0.78 0.88 0.95 0.98 1.02 1.02 1.03 1.05 1.06 1.07 1.01 0.95 0.93 0.86 0.77 0.86 0.79 0.71 0.73 0.64
0.64 0.71 0.79 0.81 0.87 0.95 1.02 1.03 1.05 1.06 1.04 0.98 0.97 0.93 0.87 0.84 0.84 0.77 0.77 0.70 0.68 0.63
0.63 0.72 0.82 0.86 0.94 1.00 1.03 1.00 0.99 1.01 0.96 0.92 0.88 0.86 0.84 0.87 0.89 0.76 0.70 0.70 0.66 0.62
0.67 0.78 0.94 0.93 1.00 1.05 1.04 1.00 0.98 0.95 0.90 0.86 0.85 0.85 0.92 0.93 0.75 0.67 0.68 0.66 0.63 0.61
0.75 0.79 0.95 0.98 1.02 1.03 0.98 0.95 0.92 0.87 0.85 0.87 0.86 0.87 0.82 0.76 0.78 0.70 0.67 0.64 0.64 0.68
0.80 0.79 0.84 0.89 0.92 0.93 0.90 0.87 0.85 0.84 0.87 0.85 0.85 0.83 0.78 0.75 0.69 0.71 0.72 0.76 0.78 0.75
0.77 0.79 0.82 0.83 0.90 0.85 0.84 0.83 0.85 0.85 0.84 0.85 0.80 0.78 0.76 0.74 0.78 0.84 0.82 0.76 0.68 0.61
0.83 0.85 0.95 0.83 0.83 0.84 0.83 0.83 0.82 0.80 0.83 0.81 0.83 0.86 0.87 0.86 0.82 0.75 0.68 0.60 0.54 0.48
0.86 0.82 0.83 0.84 0.86 0.80 0.81 0.80 0.83 0.85 0.85 0.84 0.87 0.87 0.84 0.74 0.66 0.60 0.54 0.47 0.37 0.29
0.81 0.84 0.82 0.80 0.80 0.85 0.86 0.83 0.83 0.86 0.86 0.84 0.81 0.73 0.70 0.66 0.57 0.46 0.35 0.29 0.28 0.29
0.75 0.79 0.81 0.79 0.83 0.87 0.86 0.84 0.83 0.81 0.77 0.72 0.69 0.66 0.56 0.43 0.34 0.29 0.29 0.30 0.29 0.26
0.80 0.85 0.82 0.84 0.83 0.81 0.83 0.79 0.74 0.67 0.62 0.59 0.44 0.37 0.33 0.32 0.31 0.28 0.26 0.25 0.24 0.22
0.83 0.83 0.82 0.81 0.78 0.71 0.66 0.64 0.60 0.49 0.38 0.33 0.30 0.30 0.31 0.30 0.27 0.25 0.23 0.21 0.18 0.17
Wind_Speed
48 46 45 45 42 41 39 38 38 37 36 35 33 33 32 30 28 28 26 26 26 27
48 48 47 45 43 41 40 38 37 37 36 35 34 34 33 32 30 28 27 28 28 29
44 47 47 45 43 42 40 38 37 36 35 35 33 34 33 32 32 29 28 29 29 30
38 40 43 43 43 41 40 38 37 36 35 34 33 32 32 32 30 28 29 30 31 32
35 36 39 39 40 40 39 37 35 34 33 32 31 31 32 32 29 29 29 30 31 34
34 34 36 38 37 37 35 34 33 32 31 30 30 29 28 29 26 28 29 31 33 35
31 31 32 34 34 33 32 31 30 30 29 29 28 28 28 27 27 28 30 33 35 37
24 25 27 29 29 28 28 27 27 27 27 26 26 29 28 26 29 30 33 34 35 37
20 22 23 25 24 24 23 24 24 24 24 25 24 24 26 26 28 30 30 33 35 37
15 20 20 20 20 20 20 21 21 21 23 22 23 24 24 25 27 29 33 35 36 38
14 15 17 18 17 18 19 17 18 17 19 20 20 22 23 25 28 31 33 34 36 39
13 14 14 15 14 13 14 14 14 14 15 17 20 22 25 27 29 31 33 35 37 39
12 12 12 12 10 10 9 10 12 13 15 17 20 23 25 28 30 33 35 36 38 41
9 11 11 10 9 8 7 9 10 12 15 18 21 24 27 30 32 34 36 38 40 42
Wind_Direction
244 244 244 242 243 244 247 249 248 247 249 249 251 251 253 256 261 263 266 271 273 276
244 243 243 243 242 243 244 246 246 246 247 247 251 249 252 255 261 256 266 272 272 277
244 242 241 240 240 240 241 243 244 245 245 246 249 249 251 254 259 261 263 272 274 277
244 240 237 237 237 238 240 241 243 243 243 244 247 248 251 254 250 262 268 271 275 278
241 237 233 233 234 235 237 240 240 239 240 243 245 249 253 250 258 264 269 274 278 281
237 235 232 230 230 231 233 235 236 236 238 240 245 250 241 255 257 267 274 278 281 285
231 229 228 223 224 226 228 230 232 234 236 240 244 244 248 252 261 270 277 282 285 287
216 219 213 212 216 220 223 226 229 230 236 239 242 248 247 263 266 274 281 283 285 288
205 205 201 203 209 213 217 220 224 230 232 242 244 252 263 264 272 280 282 287 289 291
201 188 193 196 202 206 211 217 224 233 240 240 251 257 261 270 277 283 287 289 292 294
173 181 185 191 198 207 209 215 224 240 248 253 254 262 269 277 283 290 292 294 295 296
172 179 187 187 198 206 201 220 235 244 249 260 269 274 279 284 290 294 296 297 297 299
171 178 179 177 181 193 205 222 242 255 265 274 276 283 289 291 294 296 298 299 300 302
151 163 164 169 180 201 231 250 262 274 276 283 287 290 294 297 297 299 301 302 303 304